Location: Star Hoppers Observatory
(42.7905°N, 83.6127°W)
Time: 04:16:27
(UTC-04:00)

NOSS 3-1 (A) - Visible Passes

Search period start: 30 June 2015 00:00
Search period end: 10 July 2015 00:00
Orbit: 880 x 1333 km, 63.4° (Epoch: 24 June)

Date Brightness Start Highest point End Pass type
(mag) Time Alt. Az. Time Alt. Az. Time Alt. Az.
30 Jun 5.5 22:50:26 10° WNW 22:56:48 28° WSW 23:03:16 10° SSW visible
01 Jul 5.0 22:05:10 10° NW 22:12:18 42° WSW 22:19:47 10° S visible
02 Jul 6.3 23:14:42 10° W 23:17:48 12° WSW 23:20:22 10° SW visible
03 Jul 6.0 22:27:50 10° WNW 22:33:26 21° WSW 22:38:55 10° SSW visible
04 Jul 5.5 21:42:15 10° NW 21:48:59 33° WSW 21:55:54 10° S visible
06 Jul 6.3 22:05:39 10° WNW 22:10:02 15° WSW 22:14:03 10° SW visible
09 Jul 6.7 21:44:53 10° W 21:46:36 10° WSW 21:47:39 10° WSW visible
